When you browse on this site, cookies collect data to enhance your experience and personalize the content and advertising you see.
Visit our Privacy Policy to learn more. By continuing to use the site, you agree to this use of cookies and data.
  • en Suisse
  • Liste des pays
  • À 7 jours
  • Température de l'eau
  • Carte météo
  • Widgets météo
  • user-avatar
    Se connecter

    Météo par heure à Grodno

    Ce jour, 22 Octobre, Mardi

    Heure Température Précipitation Vent Pression Humidité
    00:00 +14°C° 0 mm 1 m/s 755 mmHg 86%
    01:00 +14°C° 0 mm 1 m/s 755 mmHg 87%
    02:00 +14°C° 0 mm 1 m/s 755 mmHg 88%
    03:00 +14°C° 0 mm 1 m/s 755 mmHg 88%
    04:00 +14°C° 0 mm 2 m/s 755 mmHg 89%
    05:00 +14°C° 0 mm 2 m/s 755 mmHg 89%
    06:00 +14°C° 0 mm 2 m/s 755 mmHg 88%
    07:00 +14°C° 0 mm 2 m/s 755 mmHg 88%
    08:00 +13°C° 0 mm 3 m/s 756 mmHg 87%
    09:00 +16°C° 0 mm 3 m/s 756 mmHg 81%
    10:00 +17°C° 0 mm 3 m/s 756 mmHg 75%
    11:00 +19°C° 0 mm 3 m/s 756 mmHg 69%
    12:00 +19°C° 0 mm 3 m/s 756 mmHg 66%
    13:00 +20°C° 0 mm 3 m/s 756 mmHg 64%
    14:00 +21°C° 0 mm 3 m/s 755 mmHg 61%
    15:00 +20°C° 0 mm 2 m/s 755 mmHg 66%
    16:00 +19°C° 0 mm 2 m/s 755 mmHg 71%
    17:00 +19°C° 0 mm 1 m/s 755 mmHg 76%
    18:00 +18°C° 0 mm 1 m/s 755 mmHg 79%
    19:00 +16°C° 0 mm 1 m/s 755 mmHg 82%
    20:00 +15°C° 0 mm 1 m/s 755 mmHg 85%
    21:00 +15°C° 0 mm 1 m/s 755 mmHg 86%
    22:00 +15°C° 0 mm 1 m/s 755 mmHg 88%
    23:00 +14°C° 0 mm 2 m/s 754 mmHg 89%

    Demain, 23 Octobre, Mercredi

    Heure Température Précipitation Vent Pression Humidité
    00:00 +14°C° 0 mm 2 m/s 755 mmHg 90%
    01:00 +14°C° 0 mm 2 m/s 755 mmHg 91%
    02:00 +13°C° 0 mm 2 m/s 755 mmHg 92%
    03:00 +13°C° 0 mm 2 m/s 755 mmHg 93%
    04:00 +13°C° 0 mm 1 m/s 754 mmHg 94%
    05:00 +12°C° 0 mm 1 m/s 754 mmHg 95%
    06:00 +12°C° 0 mm 1 m/s 754 mmHg 95%
    07:00 +12°C° 0 mm 1 m/s 754 mmHg 95%
    08:00 +12°C° 0 mm 1 m/s 755 mmHg 95%
    09:00 +13°C° 0 mm 2 m/s 755 mmHg 88%
    10:00 +14°C° 0 mm 2 m/s 755 mmHg 81%
    11:00 +15°C° 0 mm 2 m/s 755 mmHg 74%
    12:00 +14°C° 0 mm 3 m/s 755 mmHg 73%
    13:00 +14°C° 0 mm 3 m/s 755 mmHg 71%
    14:00 +14°C° 0 mm 3 m/s 755 mmHg 70%
    15:00 +14°C° 0 mm 2 m/s 755 mmHg 74%
    16:00 +13°C° 0 mm 2 m/s 755 mmHg 77%
    17:00 +12°C° 0 mm 1 m/s 755 mmHg 81%
    18:00 +11°C° 0 mm 1 m/s 755 mmHg 83%
    19:00 +9°C° 0 mm 0 m/s 755 mmHg 86%
    20:00 +9°C° 0 mm 0 m/s 755 mmHg 88%
    21:00 +8°C° 0 mm 0 m/s 756 mmHg 88%
    22:00 +8°C° 0 mm 0 m/s 756 mmHg 89%
    23:00 +8°C° 0 mm 0 m/s 756 mmHg 89%

    Après-demain, 24 Octobre, Jeudi

    Heure Température Précipitation Vent Pression Humidité
    00:00 +9°C° 0 mm 1 m/s 756 mmHg 90%
    01:00 +8°C° 0 mm 1 m/s 756 mmHg 90%
    02:00 +8°C° 0 mm 1 m/s 756 mmHg 91%
    03:00 +8°C° 0 mm 1 m/s 756 mmHg 91%
    04:00 +7°C° 0 mm 2 m/s 755 mmHg 91%
    05:00 +7°C° 0 mm 2 m/s 755 mmHg 91%
    06:00 +7°C° 0 mm 2 m/s 755 mmHg 90%
    07:00 +7°C° 0 mm 2 m/s 755 mmHg 90%
    08:00 +7°C° 0 mm 2 m/s 755 mmHg 89%
    09:00 +8°C° 0 mm 2 m/s 755 mmHg 83%
    10:00 +10°C° 0 mm 3 m/s 754 mmHg 77%
    11:00 +12°C° 0 mm 3 m/s 754 mmHg 71%
    12:00 +13°C° 0 mm 3 m/s 754 mmHg 69%
    13:00 +14°C° 0 mm 3 m/s 754 mmHg 68%
    14:00 +16°C° 0 mm 3 m/s 754 mmHg 66%
    15:00 +14°C° 0 mm 3 m/s 753 mmHg 71%
    16:00 +13°C° 0 mm 3 m/s 753 mmHg 76%
    17:00 +13°C° 0 mm 3 m/s 752 mmHg 81%
    18:00 +12°C° 0 mm 4 m/s 752 mmHg 83%
    19:00 +12°C° 0 mm 4 m/s 752 mmHg 86%
    20:00 +11°C° 0 mm 4 m/s 752 mmHg 89%
    21:00 +11°C° 0 mm 4 m/s 752 mmHg 90%
    22:00 +11°C° 0 mm 4 m/s 752 mmHg 91%
    23:00 +11°C° 0 mm 4 m/s 752 mmHg 93%

    25 Octobre, Vendredi

    Heure Température Précipitation Vent Pression Humidité
    00:00 +11°C° 0 mm 4 m/s 752 mmHg 93%
    01:00 +11°C° 0 mm 4 m/s 752 mmHg 93%
    02:00 +12°C° 0 mm 4 m/s 751 mmHg 93%
    03:00 +11°C° 0 mm 4 m/s 751 mmHg 93%
    04:00 +11°C° 0 mm 4 m/s 751 mmHg 94%
    05:00 +11°C° 0 mm 4 m/s 750 mmHg 94%
    06:00 +11°C° 0 mm 4 m/s 751 mmHg 93%
    07:00 +11°C° 0 mm 3 m/s 751 mmHg 93%
    08:00 +11°C° 0 mm 3 m/s 751 mmHg 92%
    09:00 +13°C° 0 mm 3 m/s 751 mmHg 84%
    10:00 +14°C° 0 mm 3 m/s 751 mmHg 76%
    11:00 +17°C° 0 mm 4 m/s 751 mmHg 68%
    12:00 +18°C° 0 mm 4 m/s 751 mmHg 66%
    13:00 +18°C° 0 mm 4 m/s 752 mmHg 64%
    14:00 +19°C° 0 mm 4 m/s 752 mmHg 63%
    15:00 +18°C° 0 mm 4 m/s 752 mmHg 69%
    16:00 +17°C° 0 mm 3 m/s 752 mmHg 76%
    17:00 +15°C° 0 mm 2 m/s 752 mmHg 83%
    18:00 +15°C° 0 mm 2 m/s 752 mmHg 86%
    19:00 +14°C° 0 mm 2 m/s 753 mmHg 89%
    20:00 +14°C° 0 mm 2 m/s 753 mmHg 92%
    21:00 +13°C° 0 mm 1 m/s 753 mmHg 93%
    22:00 +13°C° 0 mm 1 m/s 753 mmHg 93%
    23:00 +13°C° 0 mm 1 m/s 754 mmHg 94%

    26 Octobre, Samedi

    Heure Température Précipitation Vent Pression Humidité
    00:00 +12°C° 0 mm 1 m/s 754 mmHg 94%
    01:00 +12°C° 0 mm 1 m/s 754 mmHg 94%
    02:00 +12°C° 0 mm 1 m/s 754 mmHg 95%
    03:00 +12°C° 0 mm 1 m/s 753 mmHg 95%
    04:00 +12°C° 0 mm 2 m/s 753 mmHg 95%
    05:00 +10°C° 0 mm 2 m/s 753 mmHg 95%
    06:00 +10°C° 0 mm 2 m/s 753 mmHg 95%
    07:00 +10°C° 0 mm 2 m/s 753 mmHg 95%
    08:00 +10°C° 0 mm 2 m/s 752 mmHg 95%
    09:00 +12°C° 0 mm 3 m/s 752 mmHg 87%
    10:00 +14°C° 0 mm 4 m/s 752 mmHg 79%
    11:00 +15°C° 0 mm 4 m/s 752 mmHg 72%
    12:00 +17°C° 0 mm 4 m/s 751 mmHg 69%
    13:00 +17°C° 0 mm 5 m/s 751 mmHg 66%
    14:00 +19°C° 0 mm 5 m/s 750 mmHg 63%
    15:00 +17°C° 0 mm 5 m/s 750 mmHg 68%
    16:00 +17°C° 0 mm 4 m/s 749 mmHg 72%
    17:00 +15°C° 0 mm 4 m/s 749 mmHg 77%
    18:00 +14°C° 0 mm 4 m/s 749 mmHg 80%
    19:00 +14°C° 0 mm 4 m/s 749 mmHg 83%
    20:00 +13°C° 0 mm 4 m/s 749 mmHg 86%
    21:00 +13°C° 0 mm 4 m/s 749 mmHg 85%
    22:00 +13°C° 0 mm 4 m/s 749 mmHg 85%
    23:00 +13°C° 0 mm 4 m/s 749 mmHg 84%

    27 Octobre, Dimanche

    Heure Température Précipitation Vent Pression Humidité
    00:00 +13°C° 0 mm 4 m/s 748 mmHg 84%
    01:00 +12°C° 0 mm 3 m/s 748 mmHg 84%
    02:00 +12°C° 0 mm 3 m/s 748 mmHg 85%
    03:00 +12°C° 0.8 mm 4 m/s 747 mmHg 87%
    04:00 +11°C° 0.8 mm 4 m/s 747 mmHg 89%
    05:00 +11°C° 0.8 mm 4 m/s 747 mmHg 91%
    06:00 +11°C° 1.6 mm 4 m/s 747 mmHg 90%
    07:00 +10°C° 1.6 mm 4 m/s 747 mmHg 89%
    08:00 +8°C° 1.6 mm 5 m/s 748 mmHg 87%
    09:00 +8°C° 0.3 mm 5 m/s 748 mmHg 81%
    10:00 +8°C° 0.3 mm 6 m/s 749 mmHg 74%
    11:00 +8°C° 0.3 mm 6 m/s 749 mmHg 68%
    12:00 +8°C° 0 mm 6 m/s 749 mmHg 64%
    13:00 +9°C° 0 mm 7 m/s 749 mmHg 61%
    14:00 +9°C° 0 mm 7 m/s 749 mmHg 58%
    15:00 +8°C° 0 mm 7 m/s 749 mmHg 61%
    16:00 +8°C° 0 mm 6 m/s 749 mmHg 63%
    17:00 +7°C° 0 mm 6 m/s 749 mmHg 66%
    18:00 +6°C° 0 mm 7 m/s 749 mmHg 67%
    19:00 +5°C° 0 mm 7 m/s 749 mmHg 68%
    20:00 +5°C° 0 mm 7 m/s 749 mmHg 69%
    21:00 +5°C° 0 mm 7 m/s 749 mmHg 70%
    22:00 +5°C° 0 mm 8 m/s 749 mmHg 72%
    23:00 +5°C° 0 mm 8 m/s 749 mmHg 73%
    Voir plus